Tiempo cada hora Caucasia

Hoy, 15 Enero, Viernes

Tiempo Temperatura Precipitaciones Viento Presión Humedad
00:00 +26°C° 0.4 mm 1 mps 753 mmHg 91%
01:00 +25°C° 0 mm 1 mps 753 mmHg 93%
02:00 +25°C° 0.1 mm 1 mps 752 mmHg 93%
03:00 +23°C° 0.1 mm 0 mps 752 mmHg 94%
04:00 +23°C° 0.1 mm 0 mps 752 mmHg 95%
05:00 +23°C° 0 mm 0 mps 753 mmHg 94%
06:00 +23°C° 0 mm 0 mps 753 mmHg 94%
07:00 +25°C° 0 mm 1 mps 754 mmHg 94%
08:00 +27°C° 0 mm 1 mps 754 mmHg 88%
09:00 +28°C° 0 mm 1 mps 754 mmHg 82%
10:00 +30°C° 0 mm 1 mps 754 mmHg 76%
11:00 +31°C° 0 mm 1 mps 753 mmHg 71%
12:00 +32°C° 0 mm 1 mps 753 mmHg 66%
13:00 +33°C° 0 mm 1 mps 752 mmHg 61%
14:00 +33°C° 0 mm 1 mps 751 mmHg 62%
15:00 +33°C° 0 mm 1 mps 751 mmHg 63%
16:00 +32°C° 0 mm 2 mps 750 mmHg 65%
17:00 +31°C° 0.2 mm 2 mps 751 mmHg 72%
18:00 +29°C° 0.2 mm 2 mps 751 mmHg 79%
19:00 +28°C° 0.2 mm 2 mps 751 mmHg 86%
20:00 +27°C° 0.2 mm 2 mps 752 mmHg 89%
21:00 +27°C° 0.2 mm 2 mps 753 mmHg 91%
22:00 +26°C° 0.2 mm 2 mps 753 mmHg 94%
23:00 +26°C° 0 mm 2 mps 753 mmHg 94%

Mañana, 16 Enero, Sábado

Tiempo Temperatura Precipitaciones Viento Presión Humedad
00:00 +26°C° 0 mm 1 mps 753 mmHg 95%
01:00 +25°C° 0 mm 1 mps 753 mmHg 95%
02:00 +25°C° 0 mm 1 mps 753 mmHg 96%
03:00 +25°C° 0 mm 1 mps 753 mmHg 96%
04:00 +25°C° 0 mm 1 mps 753 mmHg 96%
05:00 +25°C° 0.1 mm 1 mps 753 mmHg 96%
06:00 +25°C° 0.1 mm 1 mps 754 mmHg 96%
07:00 +25°C° 0.1 mm 1 mps 754 mmHg 96%
08:00 +27°C° 0.4 mm 1 mps 754 mmHg 90%
09:00 +28°C° 0.4 mm 2 mps 755 mmHg 85%
10:00 +30°C° 0.4 mm 2 mps 755 mmHg 80%
11:00 +30°C° 0.4 mm 2 mps 754 mmHg 75%
12:00 +31°C° 0.4 mm 2 mps 753 mmHg 70%
13:00 +32°C° 0.4 mm 2 mps 753 mmHg 65%
14:00 +32°C° 0.1 mm 2 mps 752 mmHg 67%
15:00 +32°C° 0.1 mm 2 mps 751 mmHg 68%
16:00 +32°C° 0.1 mm 2 mps 751 mmHg 70%
17:00 +30°C° 0.3 mm 2 mps 751 mmHg 77%
18:00 +28°C° 0.3 mm 1 mps 751 mmHg 83%
19:00 +27°C° 0.3 mm 1 mps 752 mmHg 89%
20:00 +26°C° 0.2 mm 1 mps 752 mmHg 91%
21:00 +26°C° 0.2 mm 1 mps 753 mmHg 93%
22:00 +25°C° 0.2 mm 1 mps 753 mmHg 95%
23:00 +25°C° 0 mm 1 mps 753 mmHg 95%

Pasado mañana, 17 Enero, Domingo

Tiempo Temperatura Precipitaciones Viento Presión Humedad
00:00 +25°C° 0 mm 1 mps 753 mmHg 96%
01:00 +25°C° 0 mm 1 mps 753 mmHg 96%
02:00 +25°C° 0.2 mm 1 mps 753 mmHg 96%
03:00 +24°C° 0.2 mm 1 mps 753 mmHg 96%
04:00 +24°C° 0.2 mm 1 mps 753 mmHg 96%
05:00 +24°C° 0.1 mm 1 mps 753 mmHg 96%
06:00 +24°C° 0.1 mm 1 mps 754 mmHg 96%
07:00 +24°C° 0.1 mm 1 mps 754 mmHg 96%
08:00 +26°C° 0 mm 1 mps 754 mmHg 88%
09:00 +28°C° 0 mm 1 mps 754 mmHg 81%
10:00 +30°C° 0 mm 1 mps 754 mmHg 73%
11:00 +31°C° 0 mm 1 mps 754 mmHg 68%
12:00 +32°C° 0 mm 1 mps 753 mmHg 63%
13:00 +33°C° 0 mm 1 mps 752 mmHg 57%
14:00 +33°C° 0 mm 1 mps 751 mmHg 59%
15:00 +34°C° 0 mm 2 mps 751 mmHg 60%
16:00 +34°C° 0 mm 2 mps 750 mmHg 61%
17:00 +31°C° 0 mm 2 mps 750 mmHg 68%
18:00 +30°C° 0 mm 2 mps 751 mmHg 75%
19:00 +28°C° 0 mm 1 mps 751 mmHg 82%
20:00 +27°C° 0.6 mm 1 mps 752 mmHg 86%
21:00 +26°C° 0.6 mm 1 mps 752 mmHg 89%
22:00 +26°C° 0.6 mm 2 mps 753 mmHg 93%
23:00 +25°C° 0.1 mm 1 mps 753 mmHg 94%

18 Enero, Lunes

Tiempo Temperatura Precipitaciones Viento Presión Humedad
00:00 +25°C° 0.1 mm 1 mps 753 mmHg 94%
01:00 +25°C° 0.1 mm 1 mps 753 mmHg 95%
02:00 +25°C° 0 mm 1 mps 753 mmHg 95%
03:00 +25°C° 0 mm 1 mps 753 mmHg 95%
04:00 +22°C° 0 mm 0 mps 753 mmHg 96%
05:00 +25°C° 0.1 mm 1 mps 753 mmHg 96%
06:00 +25°C° 0.1 mm 1 mps 754 mmHg 96%
07:00 +25°C° 0.1 mm 1 mps 754 mmHg 96%
08:00 +27°C° 0.1 mm 1 mps 755 mmHg 88%
09:00 +29°C° 0.1 mm 1 mps 755 mmHg 81%
10:00 +30°C° 0.1 mm 1 mps 755 mmHg 73%
11:00 +31°C° 0 mm 1 mps 754 mmHg 69%
12:00 +32°C° 0 mm 1 mps 754 mmHg 64%
13:00 +33°C° 0 mm 1 mps 753 mmHg 60%
14:00 +33°C° 0 mm 1 mps 752 mmHg 61%
15:00 +34°C° 0 mm 2 mps 751 mmHg 62%
16:00 +34°C° 0 mm 2 mps 750 mmHg 63%
17:00 +31°C° 0.1 mm 2 mps 751 mmHg 69%
18:00 +29°C° 0.1 mm 1 mps 751 mmHg 76%
19:00 +28°C° 0.1 mm 1 mps 751 mmHg 83%
20:00 +27°C° 0.3 mm 1 mps 752 mmHg 86%
21:00 +27°C° 0.3 mm 1 mps 753 mmHg 89%
22:00 +26°C° 0.3 mm 1 mps 753 mmHg 93%
23:00 +26°C° 0 mm 1 mps 753 mmHg 93%

19 Enero, Martes

Tiempo Temperatura Precipitaciones Viento Presión Humedad
00:00 +25°C° 0 mm 1 mps 753 mmHg 94%
01:00 +25°C° 0 mm 1 mps 753 mmHg 95%
02:00 +25°C° 0 mm 1 mps 752 mmHg 95%
03:00 +25°C° 0 mm 1 mps 752 mmHg 96%
04:00 +25°C° 0 mm 1 mps 752 mmHg 96%
05:00 +25°C° 0 mm 1 mps 753 mmHg 96%
06:00 +25°C° 0 mm 1 mps 753 mmHg 96%
07:00 +25°C° 0 mm 1 mps 754 mmHg 95%
08:00 +27°C° 0 mm 1 mps 754 mmHg 88%
09:00 +29°C° 0 mm 1 mps 754 mmHg 80%
10:00 +29°C° 0 mm 0 mps 754 mmHg 72%
11:00 +32°C° 0 mm 1 mps 753 mmHg 67%
12:00 +33°C° 0 mm 1 mps 752 mmHg 62%
13:00 +34°C° 0 mm 1 mps 752 mmHg 58%
14:00 +34°C° 0 mm 1 mps 751 mmHg 58%
15:00 +33°C° 0 mm 1 mps 750 mmHg 58%
16:00 +34°C° 0 mm 2 mps 750 mmHg 59%
17:00 +32°C° 0 mm 1 mps 750 mmHg 65%
18:00 +30°C° 0 mm 1 mps 750 mmHg 70%
19:00 +29°C° 0 mm 1 mps 751 mmHg 76%
20:00 +28°C° 0 mm 1 mps 751 mmHg 79%
21:00 +27°C° 0 mm 1 mps 752 mmHg 82%
22:00 +27°C° 0 mm 1 mps 752 mmHg 85%
23:00 +26°C° 0 mm 1 mps 752 mmHg 87%

20 Enero, Miércoles

Tiempo Temperatura Precipitaciones Viento Presión Humedad
00:00 +26°C° 0 mm 1 mps 752 mmHg 89%
01:00 +25°C° 0 mm 1 mps 752 mmHg 91%
02:00 +25°C° 0 mm 1 mps 751 mmHg 92%
03:00 +25°C° 0 mm 1 mps 751 mmHg 94%
04:00 +23°C° 0 mm 0 mps 751 mmHg 95%
05:00 +25°C° 0 mm 1 mps 752 mmHg 94%
06:00 +25°C° 0 mm 1 mps 752 mmHg 94%
07:00 +25°C° 0 mm 1 mps 753 mmHg 93%
08:00 +25°C° 0 mm 0 mps 753 mmHg 84%
09:00 +27°C° 0 mm 0 mps 753 mmHg 75%
10:00 +29°C° 0 mm 0 mps 753 mmHg 66%
11:00 +30°C° 0 mm 0 mps 752 mmHg 62%
12:00 +33°C° 0 mm 1 mps 752 mmHg 58%
13:00 +34°C° 0 mm 1 mps 751 mmHg 54%
14:00 +34°C° 0 mm 1 mps 750 mmHg 54%
15:00 +34°C° 0 mm 1 mps 750 mmHg 55%
16:00 +34°C° 0 mm 1 mps 749 mmHg 56%
17:00 +32°C° 0 mm 1 mps 750 mmHg 62%
18:00 +30°C° 0 mm 1 mps 750 mmHg 68%
19:00 +29°C° 0 mm 1 mps 751 mmHg 75%
20:00 +28°C° 0 mm 1 mps 751 mmHg 78%
21:00 +27°C° 0 mm 1 mps 752 mmHg 82%
22:00 +27°C° 0 mm 1 mps 752 mmHg 86%
23:00 +26°C° 0 mm 1 mps 752 mmHg 88%
Mostrar más